Temp
-16 -15 -14 -13 -13 -12 -12 -12 -11 -10 -11 -10 -10 -10 -9 -9 -9 -10 -9 -9 -9 -8 -7 -6 -6 -8 -9 -8 -8 -9 -8 -9 -9 -8 -8 -9 -9 -9 -9 -9 -9 -8 -8 -7
-17 -15 -15 -14 -14 -14 -13 -12 -12 -11 -12 -12 -11 -10 -10 -10 -10 -10 -10 -9 -8 -7 -7 -7 -8 -6 -4 -8 -8 -9 -7 -8 -8 -8 -8 -8 -9 -9 -9 -9 -9 -8 -8 -8
-17 -16 -16 -15 -15 -14 -13 -12 -12 -12 -12 -13 -12 -11 -11 -11 -10 -12 -11 -10 -9 -8 -8 -8 -8 -8 -7 -7 -8 -8 -9 -8 -8 -9 -9 -8 -8 -9 -9 -8 -9 -8 -8 -8
-17 -16 -16 -15 -14 -14 -14 -13 -13 -13 -14 -15 -13 -11 -11 -11 -11 -12 -12 -11 -11 -9 -9 -9 -8 -8 -8 -5 -6 -6 -8 -9 -9 -9 -9 -9 -9 -9 -9 -9 -9 -8 -9 -9
-17 -16 -15 -15 -14 -14 -13 -14 -14 -14 -15 -16 -15 -15 -12 -12 -13 -13 -11 -11 -10 -9 -9 -8 -7 -9 -7 -7 -7 -5 -8 -10 -10 -10 -9 -9 -9 -9 -10 -10 -10 -10 -10 -9
-16 -16 -16 -15 -15 -14 -14 -16 -16 -15 -15 -15 -15 -15 -12 -13 -13 -13 -12 -11 -10 -9 -8 -9 -9 -7 -8 -8 -7 -7 -7 -10 -11 -10 -10 -10 -10 -10 -10 -10 -10 -10 -9 -9
-17 -16 -16 -16 -16 -15 -15 -16 -16 -16 -16 -15 -15 -15 -13 -13 -12 -13 -12 -11 -11 -10 -10 -10 -10 -8 -6 -9 -8 -9 -10 -11 -11 -11 -10 -11 -11 -10 -10 -10 -10 -9 -9 -9
-17 -17 -17 -16 -16 -16 -16 -16 -16 -15 -15 -14 -14 -15 -12 -12 -12 -13 -13 -12 -12 -12 -10 -11 -11 -9 -9 -10 -10 -10 -10 -10 -9 -10 -11 -11 -10 -10 -10 -9 -9 -10 -10 -10
-18 -18 -18 -16 -17 -17 -17 -15 -16 -15 -15 -15 -14 -13 -12 -13 -13 -13 -13 -13 -12 -12 -11 -11 -10 -10 -10 -11 -11 -9 -10 -10 -11 -11 -11 -11 -10 -10 -9 -10 -9 -9 -9 -9
-17 -17 -17 -18 -17 -16 -16 -16 -15 -15 -15 -15 -15 -14 -13 -13 -12 -13 -13 -12 -12 -12 -11 -11 -10 -9 -10 -11 -11 -10 -11 -10 -10 -11 -12 -10 -10 -10 -10 -10 -10 -9 -10 -10
-18 -17 -17 -17 -16 -17 -16 -17 -16 -15 -14 -15 -14 -12 -13 -13 -13 -13 -11 -12 -12 -12 -10 -10 -10 -9 -9 -9 -10 -9 -10 -11 -11 -11 -10 -10 -10 -10 -10 -10 -10 -10 -11 -10
-17 -17 -17 -16 -17 -16 -17 -16 -15 -15 -16 -15 -15 -14 -13 -13 -13 -14 -13 -13 -12 -11 -11 -11 -11 -11 -11 -10 -10 -11 -12 -11 -10 -11 -11 -10 -10 -10 -10 -10 -11 -11 -11 -11
-17 -17 -16 -17 -17 -16 -15 -16 -16 -15 -14 -14 -14 -14 -14 -14 -13 -13 -12 -13 -12 -12 -12 -11 -12 -10 -9 -9 -10 -10 -10 -10 -11 -11 -11 -11 -11 -11 -11 -11 -11 -11 -11 -12
-18 -17 -17 -16 -16 -16 -15 -15 -15 -14 -14 -14 -14 -14 -13 -13 -13 -13 -13 -13 -12 -12 -11 -13 -13 -10 -10 -10 -10 -10 -10 -10 -10 -11 -11 -11 -11 -11 -12 -11 -11 -11 -13 -13
-18 -17 -17 -17 -16 -16 -15 -16 -16 -15 -14 -14 -15 -14 -14 -14 -15 -14 -12 -12 -11 -10 -11 -11 -11 -10 -10 -10 -11 -11 -11 -11 -12 -12 -12 -13 -13 -13 -12 -12 -12 -13 -13 -13
-18 -17 -17 -18 -18 -17 -15 -16 -16 -15 -15 -14 -15 -14 -14 -14 -13 -13 -13 -13 -13 -13 -13 -13 -12 -11 -11 -11 -12 -12 -12 -11 -11 -13 -15 -14 -12 -12 -12 -12 -13 -13 -13 -13
-17 -17 -16 -17 -17 -17 -16 -16 -16 -16 -16 -15 -14 -14 -14 -14 -13 -13 -13 -14 -13 -14 -14 -14 -13 -12 -12 -12 -13 -12 -12 -13 -13 -13 -13 -13 -12 -13 -13 -13 -13 -14 -14 -14
-17 -16 -16 -17 -17 -16 -15 -16 -16 -15 -16 -16 -15 -14 -15 -13 -14 -14 -14 -15 -15 -15 -15 -14 -14 -14 -14 -13 -13 -13 -13 -13 -14 -14 -14 -13 -14 -14 -14 -14 -14 -14 -13 -13
-17 -16 -16 -17 -17 -16 -15 -15 -16 -16 -16 -16 -16 -15 -15 -14 -13 -14 -14 -15 -15 -15 -15 -15 -14 -14 -14 -13 -14 -14 -14 -14 -14 -14 -14 -13 -13 -13 -14 -13 -13 -13 -13 -13
-17 -16 -16 -16 -16 -16 -16 -16 -15 -15 -15 -15 -15 -14 -14 -14 -14 -15 -15 -14 -14 -14 -15 -15 -15 -14 -14 -14 -14 -14 -15 -14 -14 -13 -13 -14 -14 -13 -13 -13 -13 -13 -13 -13
-16 -16 -15 -16 -15 -15 -16 -16 -16 -15 -14 -15 -15 -15 -15 -15 -14 -15 -15 -15 -15 -15 -15 -15 -15 -14 -13 -14 -14 -14 -14 -14 -15 -14 -14 -13 -13 -13 -13 -13 -13 -13 -13 -13
-16 -16 -16 -16 -16 -15 -16 -15 -15 -15 -14 -15 -14 -14 -14 -15 -15 -14 -15 -15 -15 -14 -14 -15 -15 -13 -13 -14 -13 -14 -14 -14 -14 -14 -13 -13 -13 -13 -14 -13 -13 -13 -13 -12
-16 -15 -15 -16 -16 -15 -15 -15 -15 -15 -15 -15 -15 -15 -15 -15 -15 -15 -15 -15 -14 -14 -14 -14 -14 -14 -14 -14 -14 -14 -14 -14 -14 -14 -14 -14 -14 -13 -13 -13 -13 -13 -12 -13
-16 -15 -16 -15 -15 -15 -15 -14 -14 -14 -15 -15 -16 -16 -15 -15 -14 -15 -15 -15 -14 -14 -14 -14 -14 -14 -14 -14 -14 -14 -14 -14 -14 -14 -14 -14 -13 -13 -13 -13 -13 -13 -13 -13
-16 -16 -16 -15 -15 -15 -14 -14 -15 -15 -15 -15 -16 -15 -15 -15 -15 -15 -15 -15 -15 -15 -14 -14 -15 -14 -14 -14 -14 -14 -14 -14 -14 -14 -14 -14 -14 -13 -13 -13 -13 -13 -14 -14
-16 -16 -16 -15 -14 -14 -14 -15 -15 -16 -15 -15 -15 -15 -15 -15 -15 -15 -15 -15 -15 -15 -15 -15 -15 -15 -15 -15 -15 -14 -14 -14 -14 -14 -14 -14 -14 -14 -14 -13 -13 -14 -14 -14
Height
5639 5650 5668 5685 5700 5706 5713 5722 5733 5742 5748 5755 5765 5777 5787 5794 5797 5804 5806 5807 5812 5819 5821 5828 5827 5828 5844 5846 5856 5857 5862 5860 5865 5869 5873 5873 5877 5881 5884 5883 5884 5884 5882 5882
5634 5652 5663 5676 5686 5694 5703 5712 5724 5735 5741 5746 5757 5769 5777 5783 5793 5800 5797 5797 5803 5807 5819 5820 5815 5812 5820 5829 5844 5854 5854 5855 5859 5860 5862 5867 5872 5875 5875 5877 5877 5875 5875 5873
5638 5652 5660 5670 5678 5688 5699 5708 5720 5730 5736 5741 5750 5759 5765 5773 5787 5783 5789 5792 5798 5805 5813 5813 5816 5819 5823 5828 5832 5842 5845 5848 5845 5850 5852 5861 5867 5869 5868 5868 5869 5869 5869 5866
5634 5643 5654 5665 5675 5687 5695 5710 5716 5722 5729 5733 5742 5749 5757 5766 5774 5777 5783 5789 5791 5799 5803 5806 5815 5814 5817 5798 5817 5820 5829 5838 5841 5843 5850 5856 5859 5862 5860 5861 5862 5862 5861 5859
5637 5645 5655 5665 5676 5683 5699 5703 5710 5715 5722 5729 5736 5742 5749 5759 5764 5769 5772 5782 5788 5798 5798 5799 5806 5810 5811 5807 5792 5800 5820 5822 5836 5839 5845 5852 5855 5854 5852 5854 5856 5854 5851 5850
5636 5645 5655 5664 5670 5681 5688 5694 5701 5707 5715 5717 5728 5735 5740 5749 5759 5764 5767 5772 5784 5792 5797 5795 5789 5802 5805 5799 5792 5799 5794 5821 5826 5833 5838 5843 5846 5846 5846 5848 5846 5845 5844 5842
5636 5644 5651 5657 5665 5675 5680 5684 5694 5702 5705 5710 5723 5724 5732 5745 5753 5758 5767 5770 5782 5786 5788 5790 5793 5797 5797 5797 5805 5803 5810 5817 5821 5828 5834 5838 5839 5840 5842 5840 5839 5837 5835 5833
5637 5643 5647 5653 5659 5668 5674 5680 5689 5696 5700 5712 5719 5713 5732 5745 5748 5754 5761 5770 5776 5778 5779 5785 5793 5799 5789 5793 5796 5802 5804 5809 5816 5820 5827 5831 5831 5834 5833 5830 5830 5827 5826 5824
5639 5645 5649 5654 5658 5666 5671 5679 5693 5698 5704 5710 5716 5720 5727 5734 5738 5743 5755 5761 5768 5772 5775 5778 5786 5792 5795 5796 5800 5804 5804 5809 5814 5815 5821 5824 5823 5825 5821 5820 5818 5819 5818 5816
5641 5645 5652 5658 5660 5665 5670 5684 5686 5688 5701 5707 5712 5717 5725 5732 5736 5738 5745 5752 5761 5766 5773 5772 5777 5784 5790 5793 5798 5802 5804 5807 5809 5810 5815 5813 5814 5814 5811 5807 5808 5808 5808 5808
5644 5647 5653 5656 5660 5666 5673 5676 5683 5689 5696 5702 5707 5716 5721 5730 5735 5737 5740 5747 5756 5760 5766 5771 5767 5776 5785 5792 5791 5797 5799 5800 5803 5807 5806 5804 5806 5805 5803 5800 5800 5799 5799 5798
5646 5649 5653 5660 5665 5669 5670 5673 5681 5687 5695 5700 5703 5711 5717 5727 5734 5739 5744 5741 5749 5758 5761 5765 5766 5773 5778 5782 5785 5789 5791 5792 5795 5798 5797 5796 5796 5797 5796 5794 5793 5792 5791 5790
5650 5652 5652 5656 5662 5664 5670 5675 5682 5688 5695 5701 5705 5711 5712 5723 5731 5739 5745 5746 5744 5752 5753 5754 5758 5767 5774 5779 5780 5781 5783 5785 5787 5788 5787 5786 5788 5789 5787 5785 5785 5785 5784 5782
5652 5653 5654 5660 5663 5666 5673 5678 5681 5688 5694 5698 5704 5709 5717 5723 5730 5732 5733 5734 5740 5742 5747 5745 5754 5762 5767 5767 5769 5771 5774 5777 5779 5781 5781 5782 5780 5780 5779 5778 5779 5778 5776 5773
5652 5652 5653 5657 5664 5669 5673 5678 5679 5681 5688 5694 5704 5708 5714 5716 5721 5723 5728 5731 5735 5741 5744 5746 5750 5752 5757 5760 5762 5764 5768 5772 5775 5773 5772 5772 5771 5771 5772 5772 5771 5769 5767 5764
5651 5651 5653 5655 5665 5668 5673 5676 5681 5686 5687 5684 5692 5701 5708 5706 5713 5719 5724 5728 5732 5735 5739 5742 5747 5749 5748 5750 5753 5755 5758 5763 5763 5764 5762 5761 5766 5766 5766 5765 5764 5761 5760 5757
5649 5652 5654 5657 5662 5668 5671 5677 5682 5681 5680 5686 5691 5693 5705 5706 5713 5717 5720 5724 5730 5733 5737 5738 5740 5742 5743 5744 5745 5748 5751 5753 5756 5757 5758 5759 5762 5761 5761 5759 5756 5753 5751 5747
5651 5653 5654 5659 5662 5664 5676 5680 5684 5688 5684 5681 5689 5697 5704 5704 5710 5711 5713 5717 5724 5728 5731 5733 5735 5735 5739 5743 5742 5744 5746 5747 5748 5749 5753 5753 5752 5752 5752 5750 5747 5744 5741 5737
5650 5654 5656 5658 5661 5667 5672 5678 5678 5680 5682 5686 5692 5697 5702 5701 5702 5710 5708 5716 5722 5726 5727 5728 5729 5729 5731 5732 5734 5736 5738 5741 5742 5744 5746 5745 5744 5744 5743 5740 5739 5736 5732 5728
5650 5653 5654 5659 5658 5661 5670 5672 5673 5676 5678 5683 5689 5691 5694 5701 5705 5703 5707 5712 5717 5718 5719 5719 5718 5719 5722 5725 5728 5730 5732 5734 5735 5737 5738 5737 5737 5738 5736 5734 5731 5727 5724 5720
5647 5649 5650 5654 5658 5660 5665 5668 5670 5673 5681 5683 5687 5693 5695 5699 5706 5704 5707 5710 5712 5713 5714 5715 5715 5714 5714 5715 5718 5722 5725 5727 5729 5731 5731 5730 5731 5730 5728 5726 5723 5720 5716 5711
5644 5648 5650 5653 5654 5655 5660 5665 5670 5671 5676 5682 5686 5692 5694 5695 5700 5705 5706 5707 5709 5709 5711 5710 5710 5707 5707 5706 5711 5714 5720 5723 5724 5725 5724 5722 5723 5722 5721 5719 5716 5712 5707 5703
5644 5645 5647 5650 5652 5655 5660 5663 5664 5668 5675 5676 5681 5687 5691 5692 5697 5700 5703 5705 5706 5706 5707 5708 5709 5709 5709 5709 5710 5713 5715 5717 5719 5720 5719 5717 5716 5715 5713 5710 5707 5703 5699 5695
5637 5640 5643 5647 5651 5655 5658 5661 5662 5671 5674 5677 5680 5685 5686 5689 5691 5694 5699 5702 5704 5704 5704 5706 5706 5708 5709 5709 5710 5711 5712 5713 5714 5713 5712 5710 5709 5707 5705 5702 5698 5694 5690 5686
5634 5640 5641 5644 5648 5649 5654 5657 5665 5670 5673 5678 5682 5685 5685 5687 5690 5693 5696 5698 5700 5701 5702 5703 5704 5705 5706 5707 5706 5706 5707 5708 5707 5706 5704 5703 5700 5698 5695 5693 5690 5687 5683 5679
5628 5633 5634 5636 5626 5640 5642 5655 5658 5662 5669 5674 5677 5679 5683 5686 5687 5689 5691 5693 5694 5696 5696 5698 5698 5698 5699 5699 5700 5701 5701 5701 5699 5698 5697 5694 5692 5690 5688 5685 5682 5678 5673 5668
Wind_Speed
51 55 52 49 46 49 50 50 48 50 46 46 40 36 52 60 60 63 63 62 68 64 46 26 47 71 58 59 53 34 39 42 38 37 32 28 27 32 30 37 27 29 31 33
48 46 46 46 47 47 49 49 47 44 41 41 40 40 41 58 58 58 63 66 70 73 58 54 60 51 68 55 45 41 44 42 38 45 35 26 23 31 31 28 34 35 37 37
39 40 42 43 45 46 45 46 45 43 39 35 37 39 41 52 58 60 63 70 70 70 63 54 50 52 39 45 45 52 45 44 38 29 18 25 28 31 35 35 42 35 39 41
36 39 40 40 41 40 42 36 37 38 33 30 36 44 46 51 59 52 64 72 70 61 61 58 54 50 53 35 54 48 48 37 27 22 27 26 30 28 29 30 31 36 41 43
29 32 35 36 34 37 33 34 35 38 36 33 33 40 47 52 52 55 64 66 70 63 67 58 44 50 54 42 35 43 41 42 19 22 27 30 30 30 34 33 37 38 37 39
27 29 27 28 33 33 35 37 38 43 43 43 41 46 46 49 51 55 57 59 62 62 64 69 68 55 42 46 35 21 17 10 18 24 28 27 31 37 36 33 35 38 41 41
19 27 29 33 35 36 39 41 45 45 46 50 46 50 48 45 51 55 56 55 49 46 56 59 60 41 64 60 46 21 13 17 25 32 39 36 31 29 30 31 39 39 40 40
9 18 23 23 27 35 41 41 43 44 50 44 42 50 40 37 34 47 51 57 48 42 44 46 45 65 22 20 29 29 23 25 33 38 39 29 31 32 35 38 38 38 41 43
20 13 18 27 27 45 35 37 35 43 43 45 48 38 43 42 37 37 43 41 44 54 44 46 41 48 58 49 39 31 25 33 37 36 36 35 34 39 38 37 39 41 43 45
16 18 30 33 43 37 32 29 24 35 26 37 27 36 32 40 32 26 35 39 30 32 42 38 38 43 28 34 48 50 43 38 40 42 31 35 38 39 38 39 43 45 46 46
9 12 29 36 42 34 30 27 24 25 22 27 17 17 27 40 32 30 34 36 32 28 32 35 41 42 39 36 22 26 28 35 38 36 37 38 39 40 40 42 45 46 45 43
10 13 19 26 29 41 35 31 36 32 27 24 15 27 25 39 41 31 28 38 34 26 22 26 27 31 42 50 26 22 26 33 33 33 40 42 41 41 43 45 45 43 42 43
7 8 16 24 32 47 50 35 31 37 39 27 23 17 27 39 36 36 35 29 33 34 40 31 23 16 15 28 34 34 35 37 36 39 43 41 40 40 43 43 42 41 43 42
8 5 10 11 25 38 40 46 38 38 33 32 33 19 26 25 29 35 38 37 35 38 42 23 26 35 29 28 33 39 41 39 40 39 41 38 38 38 39 40 41 43 40 37
12 10 15 13 31 33 36 42 42 47 42 39 31 27 29 28 34 35 39 44 44 42 43 46 46 46 43 39 41 40 42 40 27 29 27 30 34 37 37 39 39 37 34 34
18 17 19 20 26 30 34 37 24 28 21 16 45 43 41 45 40 37 37 39 41 43 41 41 42 47 46 44 39 36 31 32 32 27 24 34 33 34 35 36 34 34 34 38
19 20 22 26 25 21 31 31 28 13 15 9 35 36 29 22 31 32 32 30 27 27 30 30 34 40 44 40 30 27 32 33 34 24 30 27 29 35 35 32 33 35 37 40
18 21 19 25 24 29 33 30 25 22 21 17 16 14 20 25 21 24 38 25 31 31 34 37 43 45 36 30 35 36 40 39 37 30 27 27 26 27 30 32 34 33 39 39
18 24 21 24 23 19 31 29 30 29 31 26 23 17 18 23 30 33 11 8 14 20 23 25 26 28 29 36 41 42 41 39 32 29 24 25 27 27 27 28 35 36 37 39
18 25 20 22 25 29 30 33 35 38 34 25 26 26 22 20 18 11 5 10 14 13 15 20 25 28 30 34 37 35 30 22 27 28 27 27 26 28 31 34 36 37 38 38
20 13 15 24 25 32 35 39 37 36 34 31 31 26 13 16 6 7 10 10 12 13 14 18 23 23 27 32 31 29 29 24 23 25 24 25 30 31 31 33 36 35 36 36
22 22 21 13 30 24 38 36 37 37 33 25 26 21 23 21 18 16 12 11 12 11 11 10 6 9 13 23 22 27 22 23 21 20 24 24 26 29 32 34 34 33 32 30
24 22 22 23 24 7 17 41 24 21 21 29 26 21 21 15 19 13 13 12 10 11 12 10 9 6 7 8 7 8 11 13 18 20 22 23 25 28 29 30 30 30 30 33
29 23 25 24 21 17 15 32 22 28 27 22 16 14 13 17 13 11 12 13 12 10 11 11 11 12 10 11 13 13 13 16 19 20 22 23 26 27 28 29 30 32 35 38
30 27 27 24 21 19 23 33 16 20 23 22 24 22 17 14 13 14 14 14 13 14 14 13 13 15 16 17 15 15 17 18 19 21 23 26 26 28 31 33 35 37 39 39
27 31 33 29 23 25 25 24 23 17 20 24 21 16 17 17 15 15 16 14 16 18 18 19 19 19 17 15 16 18 19 19 20 24 27 27 29 32 35 37 39 40 41 42
Wind_Direction
206 210 212 213 214 211 211 214 217 219 221 225 231 232 230 223 225 225 230 233 231 239 235 230 232 224 231 223 228 228 205 205 206 221 232 243 244 253 257 257 258 273 278 295
201 202 206 206 206 209 210 211 213 217 223 229 226 228 238 233 221 223 225 232 232 237 247 243 252 205 211 212 216 229 214 203 225 222 230 230 265 254 257 262 271 277 290 298
197 200 206 203 204 205 208 211 212 215 224 226 229 229 236 231 224 217 223 229 235 237 246 253 233 253 225 214 216 215 206 218 217 226 245 253 264 261 275 272 270 284 287 295
183 196 197 205 204 207 207 206 211 214 213 211 225 233 233 231 231 221 222 229 237 241 246 250 251 266 260 205 208 197 204 213 223 242 252 265 266 264 269 266 268 277 287 292
175 187 200 195 198 201 201 211 215 215 193 207 206 223 235 230 222 210 223 224 231 233 239 243 240 241 246 219 219 198 200 217 239 255 258 259 261 276 288 283 285 292 294 292
171 180 188 197 203 205 203 203 204 207 196 203 196 217 235 224 220 225 228 231 230 231 236 244 243 252 251 257 220 184 166 208 233 256 258 262 268 282 283 282 290 288 288 291
165 183 191 194 197 203 205 196 199 205 200 207 204 214 225 220 225 225 225 230 231 233 240 248 251 268 251 249 240 223 228 252 250 248 257 262 274 281 280 281 281 287 289 292
173 176 184 208 193 190 188 194 203 208 207 213 204 215 212 213 205 215 230 232 238 238 243 245 244 244 205 247 290 269 281 299 288 263 252 275 282 276 276 281 286 289 291 295
147 163 197 192 194 173 177 193 196 202 211 211 219 230 217 211 200 206 227 228 239 242 242 249 249 247 250 262 265 262 255 249 252 250 261 277 276 279 285 285 287 291 293 296
127 155 176 175 178 169 162 166 178 190 191 215 216 215 202 206 192 215 217 223 227 237 241 256 256 249 254 258 252 257 269 268 258 278 274 276 278 281 284 288 291 292 295 297
130 148 177 183 183 173 160 187 199 188 185 197 200 180 203 196 198 197 216 221 225 236 243 247 257 256 257 264 265 270 260 257 262 266 271 273 275 280 286 288 288 291 295 297
144 156 181 182 190 193 179 179 177 195 200 203 205 178 177 202 214 212 211 235 238 240 228 253 241 263 254 230 267 252 248 254 265 267 268 273 277 281 281 282 285 289 292 291
126 111 164 186 182 190 191 184 185 186 192 191 208 209 198 182 196 217 225 233 239 235 235 220 217 247 268 247 250 256 254 255 256 262 267 271 276 280 281 284 285 288 288 288
188 189 150 195 186 185 189 195 202 197 194 199 196 186 225 187 187 212 218 222 230 237 223 217 237 271 273 261 256 254 257 261 264 267 277 279 276 276 275 279 281 280 287 292
191 198 152 171 184 186 193 195 195 206 209 208 198 181 189 196 192 207 216 227 232 238 239 251 264 275 270 264 259 259 262 267 271 257 261 269 266 265 274 275 283 286 288 290
202 180 159 163 178 197 188 187 193 202 216 168 194 194 189 194 201 224 232 232 239 240 240 246 251 254 258 254 257 265 265 261 256 263 249 256 272 276 276 273 275 282 287 294
179 181 160 168 173 189 204 189 179 205 249 244 188 186 194 196 206 213 218 220 233 233 236 235 243 246 249 251 254 263 256 262 280 260 256 268 277 270 271 278 284 288 292 298
193 178 165 166 172 198 192 204 191 184 231 242 231 217 202 212 225 223 220 207 222 233 234 232 239 245 242 251 247 253 259 259 270 273 277 276 271 275 284 290 294 293 301 301
201 184 180 174 187 179 178 188 196 177 206 220 239 239 210 230 206 225 261 195 218 224 231 240 245 242 235 234 238 244 251 257 268 275 279 279 277 282 296 300 305 299 302 303
222 187 199 204 189 185 172 178 191 196 212 214 223 230 253 223 264 218 221 244 254 262 274 276 273 267 258 247 244 248 255 261 263 264 266 274 279 284 290 297 299 302 304 303
216 228 167 187 198 179 173 185 193 200 200 210 214 217 250 232 244 259 253 254 259 263 260 270 273 270 257 251 255 241 246 249 267 271 271 268 280 283 291 296 300 299 299 302
214 225 221 239 223 201 189 195 191 204 211 222 223 237 255 252 253 240 246 246 257 252 274 278 288 322 276 239 233 240 240 247 264 278 280 279 281 287 294 295 294 295 299 302
211 215 212 213 232 254 187 209 187 176 212 228 231 260 255 208 225 227 234 236 248 260 268 272 291 290 261 211 206 226 252 257 261 267 276 279 285 288 288 287 292 295 297 301
206 208 221 216 225 235 250 205 192 199 233 238 224 243 215 217 218 226 237 244 251 262 273 281 275 265 258 250 249 249 253 258 264 271 280 283 280 281 284 288 294 297 297 297
217 213 223 224 218 229 225 233 225 204 203 215 219 221 209 212 223 235 247 251 251 255 259 272 270 260 249 245 244 250 257 263 270 281 285 284 288 292 297 299 297 294 294 296
219 212 216 221 183 197 219 225 218 214 214 217 217 216 225 233 242 248 253 261 264 261 264 275 267 260 253 248 250 248 259 269 285 294 293 294 295 295 294 294 294 296 299 301